www.pogodaiklimat.ru

Погода и климат >> Архив погоды >> Россия >> Ямало-Ненецкий АО >> Пангоды


ПОГОДА в Пангодах

  • Прогноз погоды в Пангодах
  • Монитор погоды в Пангодах

АРХИВ ПОГОДЫ в Пангодах

Время (UTC), дата Ветер
(напр.,м/с)
 
Видим.   Явления Облачность Т
(С)
Тd
(С)
f
(%)
Тe
(С)
Тes
(С)
Комфортность P
(гПа)
Po
(гПа)
Тmin
(С)
Tmax
(С)
R
(мм)
R24
(мм)
S
(см)
12 10.07 ЮЗ 2 50 км 9/6 300 м
[Cu hum Cs]
+20.8 +3.7 32 +22 +23 комфорт 1008.4 1002.3
15 10.07 ЮЗ 1 50 км 6/0
[Ac As Ci fib]
+17.5 +5.3 45 +19 +19 1008.7 1002.6 +21.2
18 10.07 ЮВ 2 50 км 6/0
[Ac trans Ci fib]
+13.0 +5.9 62 +12 +12 1009.1 1002.9
21 10.07 ЮВ 3 50 км 8/0
[Cs]
+10.7 +5.7 71 +9 +9 1008.7 1002.4
00 11.07 ЮВ 3 50 км 10/0
[Cs]
+13.7 +8.0 68 +13 +13 1007.6 1001.5
03 11.07 ЮВ 3 10 км слаб. ливневой дождь 10/8 300 м
[Cb cap Cs]
+13.2 +12.5 96 +12 +13 1006.2 1000.0 +10.4 0.4
06 11.07 Ю 5-10
{11}
20 км {ливн. осадки} 10/10 300 м
[Cb cap]
+15.4 +14.6 95 +14 +14 1005.0 998.8
09 11.07 Ю 3
{10}
50 км 10/8 300 м
[Cb cap Ac cuf Cs]
+21.3 +17.4 78 +25 +26 комфорт 1003.7 997.7
12 11.07 ЮЗ 3
{10}
50 км 10/6 300 м
[Cb cap Ac cuf Ci fib]
+26.5 +16.5 54 +30 +31 душно 1001.8 995.9
15 11.07 Ю 3
{10}
20 км в посл. час гроза 10/8 300 м
[Cb cap Ac As]
+19.5 +18.4 93 +22 +22 комфорт 1001.2 995.2 +26.6 3
18 11.07 ЮЗ 4
{15}
50 км в посл. час ливневой дождь {гроза} 10/10 300 м
[Cb cap]
+18.8 +16.9 89 +20 +20 1001.7 995.7
21 11.07 ЮЗ 3 50 км 10/8 300 м
[Cb cap Ac cuf]
+17.5 +16.9 96 +17 +17 1002.4 996.3
00 12.07 З 4
{10}
50 км 10/8 300 м
[Cb cap Ac cuf]
+17.0 +14.8 87 +17 +17 1004.1 998.0
03 12.07 ЮЗ 4
{10}
50 км 4/0
[Ac cuf Ci fib]
+19.5 +13.4 68 +21 +24 комфорт 1005.8 999.7 +17.0 0.0
06 12.07 З 5-10
{12}
50 км 6/4 600 м
[Cu med, cong Ci fib]
+23.5 +12.5 50 +25 +29 комфорт 1007.1 1001.1
09 12.07 З 4
{13}
50 км 8/8 600 м
[Cu Sc]
+23.7 +11.8 47 +25 +27 комфорт 1008.3 1002.3
12 12.07 З 5-11
{13}
50 км 8/8 300 м
[Cb cap]
+24.2 +10.0 41 +25 +26 комфорт 1009.5 1003.5
15 12.07 СЗ 2
{12}
50 км 6/4 600 м
[Sc diur, vesp Ac cast]
+20.3 +10.5 53 +22 +23 комфорт 1011.1 1005.0 +24.9
18 12.07 З 2
{12}
50 км 6/5 600 м
[Sc diur, vesp Ac cuf]
+15.1 +9.5 69 +15 +15 1012.7 1006.5
21 12.07 З 2 50 км 8/5 600 м
[Cb cap Ac cuf]
+11.6 +9.0 84 +10 +10 1013.8 1007.5
00 13.07 С 1 50 км 6/3 600 м
[Sc Ac trans]
+13.5 +11.1 85 +14 +14 1015.5 1009.3
03 13.07 СЗ 2 50 км 6/6 300 м
[Cb cap]
+17.1 +10.1 63 +17 +20 1017.1 1010.9 +11.2
06 13.07 СЗ 2 50 км 8/8 300 м
[Cb cap]
+18.6 +9.5 55 +20 +22 1018.1 1012.0
09 13.07 С 3 50 км 8/8 300 м
[Cb cap]
+19.7 +9.3 51 +21 +23 комфорт 1019.6 1013.5
12 13.07 С 2 50 км 6/4 300 м
[Cu Sc Ci fib]
+19.8 +8.8 49 +21 +24 комфорт 1019.9 1013.8
15 13.07 С 1 50 км 6/3 600 м
[Sc Ci fib]
+17.5 +6.7 49 +19 +19 1020.4 1014.2 +20.9
18 13.07 В 1 50 км 8/8 600 м
[Sc]
+13.9 +9.9 77 +14 +14 1021.0 1014.7
21 13.07 ЮВ 2 50 км 8/8 600 м
[Sc]
+12.4 +9.9 85 +11 +11 1019.8 1013.5
00 14.07 Ю 3 50 км 9/8 600 м
[Sc Ci fib]
+13.9 +10.2 78 +13 +13 1018.8 1012.5
03 14.07 ЮВ 5 10 км слаб. ливневой дождь 10/8 600 м
[Cb cap Ac cuf]
+13.7 +12.0 89 +12 +12 1018.1 1011.9 +11.9 2
06 14.07 ЮВ 7-11
{11}
50 км {ливн. осадки} 9/8 300 м
[Cb cap Ac cuf]
+18.6 +13.0 70 +19 +19 1014.8 1008.7
09 14.07 Ю 6-11
{11}
50 км 10/5 600 м
[Sc Ac trans Ci fib]
+23.0 +14.7 60 +27 +28 душно 1012.7 1006.7
12 14.07 Ю 3
{11}
50 км 10/3 600 м
[Sc Ac lent Cs]
+26.8 +16.7 54 +30 +32 душно 1011.4 1005.4
15 14.07 Ю 1 50 км 8/0
[Ci fib]
+25.9 +19.3 67 +31 +32 очень
душно
1010.8 1004.9 +27.3 0.0
18 14.07 Ю 1 50 км 4/0
[Ac lent Ci fib]
+21.5 +19.0 86 +26 +26 душно 1010.6 1004.6
21 14.07 Ю 1 4000 м 3/0
[Ci fib]
+19.7 +19.1 96 +24 +24 комфорт 1010.7 1004.6
00 15.07 ЮЗ 2 50 км 3/0
[Ci fib]
+22.7 +19.8 84 +29 +30 очень
душно
1010.5 1004.5
03 15.07 Ю 3 50 км 3/0
[Ci fib]
+27.3 +19.1 61 +33 +37 очень
душно
1009.9 1004.0 +19.5
06 15.07 ЮЗ 4-11
{11}
50 км 3/0
[Ci fib]
+31.9 +15.7 38 +35 +41 очень
душно
1009.3 1003.5
09 15.07 ЮЗ 4
{11}
50 км 3/0
[Ci fib]
+33.2 +13.9 31 +34 +40 очень
жарко
1009.4 1003.6
12 15.07 ЮЗ 3
{11}
50 км 3/0
[Ci fib]
+33.3 +13.5 30 +34 +37 очень
жарко
1009.7 1003.9
15 15.07 ЮЗ 1 50 км 3/0
[Ci fib]
+28.1 +18.3 55 +33 +33 очень
душно
1010.4 1004.5 +33.9
18 15.07 Ю 1 20 км 6/0
[Ac lent Ci fib]
+22.4 +18.4 78 +28 +28 душно 1011.2 1005.2
21 15.07 ЮВ 1 50 км 4/0
[Ac lent Ci fib]
+18.0 +16.9 93 +19 +19 1011.8 1005.7
00 16.07 СВ 1 50 км 4/0
[Ci fib]
+20.7 +17.9 84 +26 +27 душно 1012.6 1006.6
03 16.07 СВ 1 50 км 4/0
[Ci fib]
+27.2 +19.4 62 +33 +39 очень
душно
1012.6 1006.7 +17.7
06 16.07 Ю 2 50 км 6/6 600 м
[Cu med, cong]
+31.8 +18.2 44 +36 +40 очень
душно
1012.0 1006.2
09 16.07 Ю 2 50 км 6/6 600 м
[Cu med, cong]
+33.3 +15.6 35 +36 +40 очень
душно
1011.4 1005.6
12 16.07 ЮВ 2 50 км 6/4 600 м
[Cu med, cong Ci fib]
+32.8 +16.7 38 +36 +38 очень
душно
1011.0 1005.2
15 16.07 ЮВ 3 50 км 3/3 300 м
[Cu med, cong]
+30.7 +18.1 47 +35 +36 очень
душно
1011.0 1005.2 +34.0
18 16.07 В 2 50 км ясно +23.9 +18.2 70 +28 +28 душно 1011.2 1005.2
21 16.07 В 2 50 км ясно +20.6 +18.8 89 +25 +25 комфорт 1011.2 1005.2
00 17.07 В 1 50 км ясно +21.5 +18.3 82 +26 +27 душно 1011.7 1005.7
03 17.07 В 3 20 км ясно +28.0 +16.5 50 +32 +36 душно 1011.7 1005.8 +19.5
06 17.07 В 5
{10}
20 км 3/0
[Ci fib]
+31.2 +14.5 36 +33 +38 жарко 1010.5 1004.6

 

Местоположение метеостанции Пангоды (Ямало-Ненецкий АО, Россия): широта 65.83 долгота 74.50 высота над уровнем моря 52 м.

В архиве по умолчанию представлена погода в Пангодах за последнюю неделю. Архивные данные за месяц целиком и за предыдущие месяцы, начиная с января 2011 года, Вы можете получить, выбрав интересующий диапазон дат из раскрывающегося списка и нажав кнопку "Ввод!".


*Определитесь, кто Вы:
робот инопланетянин человек

Внимание! Время в таблицах - всемирное. Для получения местного времени необходимо прибавить поправку, которая равна 5 ч.

Смотрите также архив погоды в соседних городах и на ближайших метеорологических станциях:

Погода в Надыме (Ямало-Ненецкий АО, Россия) (93 км)
Погода в Новом Уренгое (Ямало-Ненецкий АО, Россия) (108 км)
Погода в Ныде (Ямало-Ненецкий АО, Россия) (113 км)
Погода в Уренгое (Ямало-Ненецкий АО, Россия) (178 км)
Погода в Тарко-Сале (Ямало-Ненецкий АО, Россия) (184 км)
Погода в Лонг-Югане (Ямало-Ненецкий АО, Россия) (203 км)
Погода в Новом Порте (Ямало-Ненецкий АО, Россия) (218 км)
Погода в Тазовском (Ямало-Ненецкий АО, Россия) (261 км)
Погода в Полуе (Ямало-Ненецкий АО, Россия) (265 км)
Погода в Ноябрьске (Ямало-Ненецкий АО, Россия) (304 км)

Пояснения к столбцам:

Ветер - указаны скорость ветра в м/с - средняя за 10 мин, порывы в срок и между сроками (в фигурных скобках) и направление, откуда дует ветер: С - северный, СВ - северо-восточный, В - восточный, ЮВ - юго-восточный, Ю - южный, ЮЗ - юго-западный, З - западный, СЗ - северо-западный.
Видимость - горизонтальная дальность видимости в метрах или километрах. При видимости от 1 до 10 км при отсутствии осадков обычно наблюдается дымка, при ухудшении видимости до 1 км и менее - туман. В сухую погоду видимость может ухудшаться дымом, пылью или мглою.
Явления - указаны атмосферные явления, наблюдавшиеся в срок или в последний час перед сроком; фигурными скобками обозначены явления, наблюдавшиеся между сроками (за 1-3 часа до срока); квадратными скобками обозначены град или гололедные отложения с указанием их диаметра в мм.
Облачность - указаны через наклонную черту общая и нижняя облачность в баллах и высота нижней границы облаков в метрах; квадратными скобками обозначены формы облаков: Ci - перистые, Cs - перисто-слоистые, Cc - перисто-кучевые, Ac - высококучевые, As - высокослоистые, Sc - слоисто-кучевые, Ns - слоисто-дождевые, Cu - кучевые, Cb - кучево-дождевые. Подробнее классификацию облаков см. в Атласе облаков (PDF).
T - Температура воздуха - температура, измеренная на высоте 2 м над землей.
Td - Температура точки росы - температура, при понижении до которой содержащийся в воздухе водяной пар достигнет насыщения.
f - Относительная влажность воздуха - влажноcть воздуха, измеренная на высоте 2 м над землей.
Te - Эффективная температура - температура, которую ощущает одетый по сезону человек в тени. Характеристика душности погоды. При расчете учитывается влияние влажности воздуха и скорости ветра на теплоощущения человека.
Tes - Эффективная температура на солнце - температура, которую ощущает человек, с поправкой на солнечный нагрев. Характеристика знойности погоды. Зависит от высоты солнца над горизонтом, облачности и скорости ветра. Ночью, в пасмурную погоду, а также при ветре 12 м/с и более поправка равна нулю.
P - Атмосферное давление - приведенное к уровню моря атмосферное давление.
Po - Атмосферное давление - измеренное на уровне метеостанции атмосферное давление.
Tmin - Минимальная температура - минимум температуры воздуха на высоте 2 м над землей.
Tmax - Максимальная температура - максимум температуры воздуха на высоте 2 м над землей.
R - Количество осадков - Количество выпавших осадков за период времени, мм. При наведении курсора мыши на число - период времени, за который выпало указанное количество осадков.
R24 - Количество осадков - Количество выпавших осадков за 24 часа, мм.
S - Снежный покров - Высота снежного покрова, см. При наведении курсора мыши на число - состояние снежного покрова и степень покрытия местности в баллах.